User: anonymous   Login
Location: Unspecified
(0.0000°N, 0.0000°E)
Time: 11:40:19
(UTC+00:00)
Language:

FALCON 9 R/B - Orbit

View from above orbital plane
View from above orbital plane
View from above satellite
View from above satellite

Ground track
Ground track

The orbit data is extracted from the following two-line orbital elements,

1 41590U 16038C   21021.87865182 -.00000313  00000-0  49147-3 0  9994
2 41590  25.4269   5.2792 8188700 331.2579   1.3511  1.18362681 19856
Epoch (UTC): 21 January 2021 21:05:15
Eccentricity: 0.8188700
inclination: 25.4269°
perigee height: 459 km
apogee height: 62285 km
right ascension of ascending node: 5.2792°
argument of perigee: 331.2579°
revolutions per day: 1.18362681
mean anomaly at epoch: 1.3511°
orbit number at epoch: 1985

The dashed part of the orbit path shows where the satellite is in the earth's shadow,  

DLR